CW4167 Weather Reports


Display with metric or nautical units.
time (UTC)temp
F
wind
direction
speed
MPH
gust
MPH
rain 1hr
in
rain 24hr
in
rain mn
in
humidity
%
barometer
mb
20260505205205 46 14 8.0 9.0 0.00 0.00 0.00 61 1009.5
20260505204704 46 9 8.0 8.0 0.00 0.00 0.00 61 1009.5
20260505203706 45 13 9.0 13.0 0.00 0.00 0.00 60 1009.5
20260505202204 46 26 4.0 5.0 0.00 0.00 0.00 61 1009.5
20260505201704 46 26 3.0 6.0 0.00 0.00 0.00 60 1009.4
20260505200204 47 14 9.0 10.0 0.00 0.00 0.00 60 1009.5
20260505193205 48 12 6.0 7.0 0.00 0.00 0.00 61 1009.4
20260505192204 48 13 5.0 6.0 0.00 0.00 0.00 61 1009.3
20260505190206 50 22 4.0 5.0 0.00 0.00 0.00 58 1009.1
20260505185705 50 23 4.0 5.0 0.00 0.00 0.00 57 1009.1
20260505185205 50 23 3.0 3.0 0.00 0.00 0.00 56 1009.1
20260505184704 51 23 3.0 5.0 0.00 0.00 0.00 54 1009.1
20260505184204 51 21 5.0 5.0 0.00 0.00 0.00 55 1009.1
20260505183204 51 6 3.0 5.0 0.00 0.00 0.00 57 1009.2
20260505182704 51 6 4.0 6.0 0.00 0.00 0.00 57 1009.2
20260505182204 51 359 5.0 6.0 0.00 0.00 0.00 56 1009.2
20260505180704 52 0 6.0 7.0 0.00 0.00 0.00 54 1009.1
20260505180206 52 356 8.0 8.0 0.00 0.00 0.00 54 1009.1
20260505175205 52 352 7.0 8.0 0.00 0.00 0.00 52 1009.1
20260505174704 53 1 9.0 9.0 0.00 0.00 0.00 53 1009.1
20260505173706 53 352 7.0 13.0 0.00 0.00 0.00 54 1009.1
20260505173204 53 345 8.0 14.0 0.00 0.00 0.00 53 1009.2
20260505171706 53 339 5.0 13.0 0.00 0.00 0.00 51 1009.2
20260505171205 53 332 7.0 10.0 0.00 0.00 0.00 50 1009.2
20260505170704 53 0 6.0 13.0 0.00 0.00 0.00 49 1009.2
20260505170204 53 346 8.0 14.0 0.00 0.00 0.00 50 1009.2
20260505163205 54 0 9.0 15.0 0.00 0.00 0.00 50 1009.2
20260505153205 55 331 11.0 18.0 0.00 0.00 0.00 46 1009.2
20260505152204 55 359 13.0 18.0 0.00 0.00 0.00 44 1009.3
20260505140205 56 337 10.0 15.0 0.00 0.00 0.00 53 1009.4
20260505124704 56 353 10.0 16.0 0.00 0.00 0.00 57 1009.4
20260505122205 55 325 10.0 16.0 0.00 0.00 0.00 57 1009.5
20260505121704 56 340 15.0 17.0 0.00 0.00 0.00 58 1009.5
20260505115205 55 339 12.0 15.0 0.00 0.00 0.00 62 1009.4
20260505113705 56 338 7.0 13.0 0.00 0.00 0.00 64 1009.4
20260505112205 55 327 9.0 14.0 0.00 0.00 0.00 65 1009.5
20260505111206 55 336 9.0 14.0 0.00 0.00 0.00 65 1009.5
20260505102205 54 355 10.0 15.0 0.00 0.00 0.00 65 1009.7
20260505094205 55 3 8.0 15.0 0.00 0.00 0.00 65 1009.7
20260505093206 55 309 12.0 16.0 0.00 0.00 0.00 64 1009.7
20260505092704 55 340 10.0 17.0 0.00 0.00 0.00 65 1009.8
20260505090704 55 313 10.0 16.0 0.00 0.00 0.00 65 1009.7
20260505084706 53 338 9.0 14.0 0.00 0.00 0.00 68 1009.8
20260505084204 54 319 11.0 17.0 0.00 0.00 0.00 66 1009.8
20260505083205 54 333 7.0 14.0 0.00 0.00 0.00 71 1009.8
20260505082705 53 330 12.0 15.0 0.00 0.00 0.00 72 1009.8
20260505080206 52 311 10.0 16.0 0.00 0.00 0.00 70 1009.7
20260505075204 53 318 7.0 14.0 0.00 0.00 0.00 73 1009.6
20260505074205 51 344 11.0 17.0 0.00 0.00 0.00 75 1009.6
20260505073705 50 325 9.0 15.0 0.00 0.00 0.00 75 1009.6
20260505070705 51 313 10.0 15.0 0.00 0.00 0.00 73 1009.5
20260505070205 51 310 9.0 15.0 0.00 0.00 0.00 74 1009.5
20260505064705 50 338 11.0 14.0 0.00 0.00 0.00 74 1009.5
20260505064205 50 324 7.0 10.0 0.00 0.00 0.00 76 1009.6
20260505063706 50 315 9.0 14.0 0.00 0.00 0.00 75 1009.6
20260505063207 49 328 10.0 17.0 0.00 0.00 0.00 76 1009.5
20260505062704 49 326 11.0 16.0 0.00 0.00 0.00 77 1009.5
20260505062205 49 309 12.0 15.0 0.00 0.00 0.00 77 1009.5
20260505061705 49 322 12.0 17.0 0.00 0.00 0.00 77 1009.5
20260505061205 49 307 10.0 16.0 0.00 0.00 0.00 79 1009.5
20260505060705 49 322 8.0 16.0 0.00 0.00 0.00 80 1009.5
20260505060204 49 344 9.0 14.0 0.00 0.00 0.00 82 1009.4
20260505055706 48 317 7.0 10.0 0.00 0.00 0.00 84 1009.4
20260505055204 47 310 6.0 8.0 0.00 0.00 0.00 84 1009.4
20260505054705 47 305 5.0 7.0 0.00 0.00 0.00 83 1009.4
20260505053704 47 310 6.0 10.0 0.00 0.00 0.00 85 1009.4
20260505052206 46 291 7.0 9.0 0.00 0.00 0.00 87 1009.4
20260505041205 42 273 1.0 3.0 0.00 0.01 0.00 88 1009.3
20260505040206 41 267 1.0 5.0 0.00 0.01 0.00 88 1009.4
20260505035704 41 265 3.0 6.0 0.00 0.01 0.00 88 1009.5
20260505034205 41 256 0.0 5.0 0.00 0.01 0.00 87 1009.5
20260505033704 41 245 2.0 3.0 0.00 0.01 0.00 87 1009.5
20260505033204 42 238 1.0 2.0 0.00 0.01 0.00 87 1009.5
20260505032205 42 239 2.0 3.0 0.00 0.01 0.00 87 1009.5
20260505030705 42 239 2.0 5.0 0.00 0.01 0.00 87 1009.3
20260505025704 42 274 3.0 3.0 0.00 0.01 0.00 87 1009.4
20260505025205 42 272 2.0 3.0 0.00 0.01 0.00 87 1009.4
20260505024705 42 275 3.0 5.0 0.00 0.01 0.00 87 1009.4
20260505024204 42 292 3.0 5.0 0.00 0.01 0.00 87 1009.4
20260505023705 42 293 3.0 5.0 0.00 0.01 0.00 87 1009.5
20260505023205 42 263 3.0 5.0 0.00 0.01 0.00 87 1009.5
20260505022704 42 314 2.0 3.0 0.00 0.01 0.00 87 1009.4
20260505021705 42 314 3.0 5.0 0.00 0.01 0.00 87 1009.5
20260505020205 42 318 5.0 7.0 0.00 0.01 0.00 86 1009.6
20260505015204 42 296 5.0 6.0 0.00 0.01 0.00 86 1009.6
20260505014705 43 305 5.0 6.0 0.00 0.01 0.00 86 1009.6
20260505014204 43 303 5.0 6.0 0.00 0.01 0.00 86 1009.7
20260505013705 43 299 6.0 7.0 0.00 0.01 0.00 86 1009.7
20260505012706 43 289 5.0 6.0 0.00 0.01 0.00 86 1009.6
20260505011704 43 292 5.0 6.0 0.00 0.01 0.00 86 1009.6
20260505011205 43 289 3.0 5.0 0.00 0.01 0.00 86 1009.8
20260505010205 43 289 4.0 6.0 0.00 0.01 0.00 86 1009.8
20260505005204 44 289 6.0 8.0 0.00 0.01 0.00 86 1009.8
20260505004704 44 292 5.0 7.0 0.00 0.01 0.00 86 1009.7
20260505004204 44 303 6.0 7.0 0.00 0.01 0.00 86 1009.7
20260505003705 44 294 6.0 7.0 0.00 0.01 0.00 86 1009.7
20260505003204 44 289 5.0 7.0 0.00 0.01 0.00 86 1009.7
20260505001706 44 306 6.0 8.0 0.00 0.01 0.00 86 1009.9
20260505001206 44 293 5.0 7.0 0.00 0.01 0.00 86 1009.8
20260505000704 44 290 5.0 6.0 0.00 0.01 0.00 86 1009.8
20260505000204 44 291 3.0 6.0 0.00 0.01 0.00 86 1009.9
20260504235707 44 279 3.0 5.0 0.00 0.01 0.00 86 1009.9
20260504234705 44 288 3.0 5.0 0.00 0.01 0.00 85 1009.9
20260504232704 44 294 5.0 6.0 0.00 0.02 0.00 85 1009.8
20260504232206 44 290 4.0 6.0 0.00 0.02 0.00 85 1009.9
20260504231206 45 301 2.0 3.0 0.00 0.02 0.00 85 1010.0
20260504230705 45 301 5.0 6.0 0.00 0.02 0.00 85 1010.0
20260504224206 45 306 0.0 0.0 0.00 0.05 0.00 83 1010.0
20260504223705 45 306 0.0 0.0 0.00 0.05 0.00 83 1010.0
20260504222706 46 307 2.0 3.0 0.00 0.06 0.00 82 1009.9
20260504221704 46 306 3.0 5.0 0.00 0.06 0.00 81 1010.0
20260504220704 47 306 3.0 6.0 0.00 0.07 0.00 81 1009.9
20260504220204 47 302 4.0 6.0 0.00 0.09 0.00 81 1009.9
20260504213706 47 287 6.0 8.0 0.00 0.12 0.10 79 1009.9
20260504212206 47 300 5.0 8.0 0.00 0.13 0.10 78 1009.9
20260504211704 47 302 5.0 7.0 0.00 0.14 0.10 78 1009.9
20260504211204 48 291 4.0 7.0 0.00 0.15 0.10 77 1009.8
20260504210704 48 289 4.0 7.0 0.00 0.16 0.10 77 1009.8
20260504210208 48 283 4.0 7.0 0.00 0.16 0.10 76 1009.8